Location: Unspecified
(0.0000°N, 0.0000°E)
Time: 10:09:18
(UTC+00:00)

Courier 1B Rocket - Pass Details

Date: 26 May 2026
Orbit: 920 x 1201 km, 28.2° (Epoch: 9 June)

Event Time Altitude Azimuth Distance (km) Brightness Sun altitude
Rises 23:06:04 0° 241° (WSW) 4,092 - -65.4°
Reaches altitude 10° 23:08:57 10° 241° (WSW) 3,117 - -65.7°
Maximum altitude 23:16:46 86° 329° (NNW) 1,162 - -66.6°
Drops below altitude 10° 23:24:10 10° 58° (ENE) 2,961 - -67.3°
Sets 23:26:50 0° 59° (ENE) 3,878 - -67.5°
